RYR870T EIKN-EGGW

Flight info

Callsign RYR870T
Flight time 1h 5m
Altitude 35000
Route CON DCT OLAPO DCT LIFFY UL975 WAL UQ4 LISTO UL612 HON L15 FINMA DCT BPK Q295 MATCH DCT LOFFO
Aircraft B738/M-SDE2E3FGHIRWXY/LB1

Departure

Time 2026-04-25 12:38
Airport Ireland West Airport Knock (EIKN)

Arrival

Time 2026-04-25 13:43
Airport London Luton Airport (EGGW)
Time Latitude Longitude Altitude Speed Heading
2026-04-25 12:00 53.91403 -8.81023 648 ft 0 kts 264°
2026-04-25 12:29 53.91400 -8.81025 648 ft 1 kts 225°
2026-04-25 12:29 53.91394 -8.81019 648 ft 1 kts 142°
2026-04-25 12:30 53.91392 -8.80987 648 ft 5 kts 92°
2026-04-25 12:30 53.91387 -8.80945 650 ft 6 kts 112°
2026-04-25 12:30 53.91352 -8.80916 648 ft 6 kts 162°
2026-04-25 12:30 53.91314 -8.80907 648 ft 6 kts 172°
2026-04-25 12:31 53.91275 -8.80898 648 ft 6 kts 172°
2026-04-25 12:31 53.91234 -8.80889 648 ft 6 kts 172°
2026-04-25 12:31 53.91191 -8.80875 649 ft 6 kts 168°
2026-04-25 12:31 53.91150 -8.80877 649 ft 7 kts 217°
2026-04-25 12:32 53.91136 -8.80953 648 ft 7 kts 260°
2026-04-25 12:32 53.91125 -8.81040 648 ft 8 kts 258°
2026-04-25 12:32 53.91113 -8.81142 649 ft 10 kts 258°
2026-04-25 12:32 53.91098 -8.81271 648 ft 13 kts 258°
2026-04-25 12:33 53.91079 -8.81429 644 ft 14 kts 258°
2026-04-25 12:33 53.91060 -8.81589 645 ft 14 kts 258°
2026-04-25 12:33 53.91041 -8.81751 644 ft 15 kts 259°
2026-04-25 12:33 53.91021 -8.81921 646 ft 14 kts 258°
2026-04-25 12:34 53.91002 -8.82083 647 ft 14 kts 259°
2026-04-25 12:34 53.90984 -8.82238 649 ft 13 kts 259°
2026-04-25 12:34 53.90967 -8.82387 649 ft 13 kts 259°
2026-04-25 12:34 53.90954 -8.82498 649 ft 15 kts 259°
2026-04-25 12:35 53.90926 -8.82741 649 ft 16 kts 259°
2026-04-25 12:35 53.90903 -8.82927 647 ft 17 kts 258°
2026-04-25 12:35 53.90878 -8.83130 646 ft 18 kts 258°
2026-04-25 12:35 53.90854 -8.83342 647 ft 18 kts 259°
2026-04-25 12:36 53.90834 -8.83508 647 ft 12 kts 258°
2026-04-25 12:36 53.90808 -8.83599 648 ft 9 kts 234°
2026-04-25 12:36 53.90796 -8.83665 649 ft 5 kts 303°
2026-04-25 12:36 53.90825 -8.83648 648 ft 6 kts 73°
2026-04-25 12:37 53.90827 -8.83565 650 ft 8 kts 80°
2026-04-25 12:37 53.90865 -8.83243 647 ft 65 kts 78°
2026-04-25 12:37 53.91008 -8.82035 647 ft 140 kts 79°
2026-04-25 12:37 53.91223 -8.80139 965 ft 175 kts 81°
2026-04-25 12:38 53.91460 -8.78050 1785 ft 183 kts 81°
2026-04-25 12:38 53.91712 -8.75954 2808 ft 180 kts 80°
2026-04-25 12:38 53.91983 -8.73763 3323 ft 207 kts 81°
2026-04-25 12:38 53.92290 -8.71191 3584 ft 233 kts 81°
2026-04-25 12:39 53.92616 -8.68414 4128 ft 245 kts 81°
2026-04-25 12:39 53.92958 -8.65453 4544 ft 263 kts 81°
2026-04-25 12:39 53.93281 -8.62639 5151 ft 273 kts 81°
2026-04-25 12:39 53.93680 -8.59194 6244 ft 273 kts 81°
2026-04-25 12:40 53.94052 -8.56042 7080 ft 278 kts 81°
2026-04-25 12:40 53.94438 -8.52773 7965 ft 282 kts 81°
2026-04-25 12:40 53.94827 -8.49481 8860 ft 286 kts 81°
2026-04-25 12:40 53.95220 -8.46130 9724 ft 290 kts 81°
2026-04-25 12:41 53.95612 -8.42781 10519 ft 297 kts 81°
2026-04-25 12:41 53.96030 -8.39186 10789 ft 322 kts 81°
2026-04-25 12:41 53.96477 -8.35331 11084 ft 343 kts 81°
2026-04-25 12:41 53.96949 -8.31288 11720 ft 352 kts 81°
2026-04-25 12:42 53.97425 -8.27194 12517 ft 355 kts 81°
2026-04-25 12:42 53.97739 -8.24476 13071 ft 357 kts 81°
2026-04-25 12:42 53.98394 -8.18800 14101 ft 364 kts 81°
2026-04-25 12:42 53.98893 -8.14536 14770 ft 368 kts 81°
2026-04-25 12:43 53.99393 -8.10263 15456 ft 373 kts 81°
2026-04-25 12:43 53.99906 -8.05882 16143 ft 377 kts 81°
2026-04-25 12:43 54.00898 -7.97084 17458 ft 385 kts 86°
2026-04-25 12:44 54.00727 -7.92496 18094 ft 384 kts 107°
2026-04-25 12:44 53.99717 -7.88388 18723 ft 382 kts 123°
2026-04-25 12:44 53.96879 -7.80642 19830 ft 390 kts 126°
2026-04-25 12:45 53.95401 -7.76710 20378 ft 394 kts 125°
2026-04-25 12:45 53.93934 -7.72776 20912 ft 398 kts 125°
2026-04-25 12:45 53.90995 -7.64804 21989 ft 407 kts 124°
2026-04-25 12:46 53.89458 -7.60611 22526 ft 411 kts 124°
2026-04-25 12:46 53.87941 -7.56470 23036 ft 415 kts 124°
2026-04-25 12:46 53.86421 -7.52329 23534 ft 419 kts 124°
2026-04-25 12:46 53.84875 -7.48121 23984 ft 423 kts 124°
2026-04-25 12:47 53.83307 -7.43860 24421 ft 425 kts 124°
2026-04-25 12:47 53.81733 -7.39589 24861 ft 428 kts 124°
2026-04-25 12:47 53.80145 -7.35295 25297 ft 430 kts 125°
2026-04-25 12:47 53.78608 -7.30986 25705 ft 435 kts 120°
2026-04-25 12:48 53.77396 -7.26286 26096 ft 441 kts 110°
2026-04-25 12:48 53.76553 -7.21271 26519 ft 444 kts 107°
2026-04-25 12:48 53.75765 -7.16182 26918 ft 447 kts 106°
2026-04-25 12:48 53.74984 -7.11066 27299 ft 450 kts 106°
2026-04-25 12:49 53.74203 -7.06002 27671 ft 452 kts 107°
2026-04-25 12:49 53.73394 -7.00837 28039 ft 455 kts 107°
2026-04-25 12:49 53.72564 -6.95617 28410 ft 457 kts 107°
2026-04-25 12:49 53.71729 -6.90428 28763 ft 460 kts 107°
2026-04-25 12:50 53.70876 -6.85170 29118 ft 462 kts 107°
2026-04-25 12:50 53.70022 -6.79940 29459 ft 465 kts 107°
2026-04-25 12:50 53.69152 -6.74623 29803 ft 467 kts 107°
2026-04-25 12:50 53.68286 -6.69349 30124 ft 469 kts 107°
2026-04-25 12:51 53.67409 -6.64020 30414 ft 471 kts 107°
2026-04-25 12:51 53.66526 -6.58670 30755 ft 471 kts 107°
2026-04-25 12:51 53.65907 -6.54928 31070 ft 469 kts 107°
2026-04-25 12:51 53.65032 -6.49647 31505 ft 467 kts 107°
2026-04-25 12:52 53.64147 -6.44327 31889 ft 466 kts 107°
2026-04-25 12:52 53.63302 -6.39264 32198 ft 466 kts 107°
2026-04-25 12:52 53.62416 -6.33967 32561 ft 465 kts 107°
2026-04-25 12:52 53.61531 -6.28701 32953 ft 464 kts 108°
2026-04-25 12:53 53.60936 -6.25165 33214 ft 463 kts 108°
2026-04-25 12:53 53.60044 -6.19876 33569 ft 462 kts 108°
2026-04-25 12:53 53.59164 -6.14680 33917 ft 461 kts 108°
2026-04-25 12:53 53.58278 -6.09463 34250 ft 461 kts 108°
2026-04-25 12:54 53.57393 -6.04266 34551 ft 460 kts 108°
2026-04-25 12:54 53.56511 -5.99098 34834 ft 459 kts 108°
2026-04-25 12:54 53.55607 -5.93821 35098 ft 459 kts 108°
2026-04-25 12:54 53.54726 -5.88690 35212 ft 462 kts 108°
2026-04-25 12:55 53.53222 -5.79975 35204 ft 463 kts 108°
2026-04-25 12:55 53.51113 -5.67803 35208 ft 456 kts 108°
2026-04-25 12:56 53.49328 -5.57571 35217 ft 455 kts 108°
2026-04-25 12:56 53.47845 -5.47280 35193 ft 457 kts 96°
2026-04-25 12:57 53.47575 -5.36556 35215 ft 457 kts 92°
2026-04-25 12:57 53.47367 -5.25949 35208 ft 457 kts 93°
2026-04-25 12:58 53.47073 -5.15286 35216 ft 457 kts 94°
2026-04-25 12:58 53.46729 -5.04622 35214 ft 458 kts 94°
2026-04-25 12:59 53.46372 -4.93893 35210 ft 458 kts 94°
2026-04-25 12:59 53.46011 -4.83195 35209 ft 458 kts 94°
2026-04-25 13:00 53.45695 -4.74351 35212 ft 458 kts 94°
2026-04-25 13:00 53.45238 -4.61747 35207 ft 459 kts 94°
2026-04-25 13:01 53.44886 -4.51011 35212 ft 458 kts 94°
2026-04-25 13:01 53.44550 -4.40626 35210 ft 458 kts 94°
2026-04-25 13:02 53.44175 -4.29839 35215 ft 458 kts 95°
2026-04-25 13:02 53.43738 -4.19125 35215 ft 458 kts 95°
2026-04-25 13:03 53.43288 -4.08416 35208 ft 457 kts 95°
2026-04-25 13:03 53.42852 -3.98014 35218 ft 457 kts 95°
2026-04-25 13:04 53.42414 -3.87422 35221 ft 457 kts 95°
2026-04-25 13:04 53.41978 -3.76784 35215 ft 457 kts 95°
2026-04-25 13:05 53.41527 -3.66171 35214 ft 456 kts 97°
2026-04-25 13:05 53.40026 -3.55933 35209 ft 452 kts 116°
2026-04-25 13:06 53.37235 -3.46475 35215 ft 451 kts 118°
2026-04-25 13:06 53.34496 -3.37004 35206 ft 452 kts 114°
2026-04-25 13:07 53.32638 -3.26871 35205 ft 453 kts 106°
2026-04-25 13:07 53.31298 -3.18307 35196 ft 454 kts 106°
2026-04-25 13:08 53.29627 -3.07928 35191 ft 454 kts 107°
2026-04-25 13:08 53.27943 -2.97774 35209 ft 454 kts 107°
2026-04-25 13:09 53.26233 -2.87549 35213 ft 454 kts 107°
2026-04-25 13:09 53.24587 -2.77824 35210 ft 454 kts 107°
2026-04-25 13:10 53.22822 -2.67749 35209 ft 454 kts 108°
2026-04-25 13:10 53.21017 -2.57516 35209 ft 454 kts 108°
2026-04-25 13:11 53.19238 -2.47441 35214 ft 454 kts 108°
2026-04-25 13:11 53.17433 -2.37259 35202 ft 455 kts 108°
2026-04-25 13:12 53.15633 -2.27162 35204 ft 454 kts 108°
2026-04-25 13:12 53.14542 -2.22221 35184 ft 452 kts 120°
2026-04-25 13:12 53.13361 -2.19209 35218 ft 449 kts 131°
2026-04-25 13:13 53.10302 -2.14603 34770 ft 450 kts 145°
2026-04-25 13:13 53.07782 -2.11577 34339 ft 445 kts 147°
2026-04-25 13:13 53.05215 -2.08579 33852 ft 442 kts 147°
2026-04-25 13:13 53.02727 -2.05667 33375 ft 438 kts 147°
2026-04-25 13:14 53.00268 -2.02754 32940 ft 433 kts 146°
2026-04-25 13:14 52.97748 -1.99737 32479 ft 430 kts 146°
2026-04-25 13:14 52.95336 -1.96828 32042 ft 426 kts 146°
2026-04-25 13:14 52.92943 -1.93936 31618 ft 423 kts 146°
2026-04-25 13:15 52.91346 -1.92005 31323 ft 421 kts 146°
2026-04-25 13:15 52.88183 -1.88187 30768 ft 417 kts 146°
2026-04-25 13:15 52.85841 -1.85364 30333 ft 415 kts 146°
2026-04-25 13:15 52.83452 -1.82492 29853 ft 412 kts 146°
2026-04-25 13:16 52.81168 -1.79748 29400 ft 409 kts 146°
2026-04-25 13:16 52.78879 -1.77000 28968 ft 405 kts 146°
2026-04-25 13:16 52.76585 -1.74254 28554 ft 401 kts 146°
2026-04-25 13:16 52.74278 -1.71582 28092 ft 397 kts 151°
2026-04-25 13:17 52.71878 -1.69394 27657 ft 393 kts 154°
2026-04-25 13:17 52.69455 -1.67325 27237 ft 390 kts 155°
2026-04-25 13:17 52.67069 -1.65318 26820 ft 388 kts 155°
2026-04-25 13:17 52.64634 -1.63268 26394 ft 385 kts 155°
2026-04-25 13:18 52.62301 -1.61292 25993 ft 383 kts 155°
2026-04-25 13:18 52.59941 -1.59286 25591 ft 380 kts 155°
2026-04-25 13:18 52.58313 -1.57897 25312 ft 379 kts 155°
2026-04-25 13:18 52.55977 -1.55901 24902 ft 377 kts 154°
2026-04-25 13:19 52.53649 -1.53911 24497 ft 375 kts 154°
2026-04-25 13:19 52.51324 -1.51926 24099 ft 374 kts 155°
2026-04-25 13:19 52.49031 -1.49970 23714 ft 372 kts 154°
2026-04-25 13:19 52.47512 -1.48675 23393 ft 371 kts 154°
2026-04-25 13:20 52.44438 -1.46059 22803 ft 368 kts 154°
2026-04-25 13:20 52.42129 -1.44097 22377 ft 365 kts 154°
2026-04-25 13:20 52.39843 -1.42156 21969 ft 363 kts 154°
2026-04-25 13:20 52.37606 -1.40259 21556 ft 361 kts 154°
2026-04-25 13:21 52.35314 -1.38317 21156 ft 358 kts 154°
2026-04-25 13:21 52.33111 -1.36453 20760 ft 356 kts 154°
2026-04-25 13:21 52.30901 -1.34586 20379 ft 355 kts 154°
2026-04-25 13:21 52.28718 -1.32723 20097 ft 352 kts 153°
2026-04-25 13:22 52.26574 -1.30746 19671 ft 355 kts 152°
2026-04-25 13:22 52.24423 -1.28691 19315 ft 355 kts 151°
2026-04-25 13:22 52.22302 -1.26657 18962 ft 356 kts 151°
2026-04-25 13:23 52.18003 -1.22568 18190 ft 358 kts 151°
2026-04-25 13:23 52.15819 -1.20506 17799 ft 356 kts 152°
2026-04-25 13:23 52.13712 -1.18524 17432 ft 353 kts 152°
2026-04-25 13:23 52.11578 -1.16519 17066 ft 349 kts 152°
2026-04-25 13:24 52.09479 -1.14552 16724 ft 346 kts 152°
2026-04-25 13:24 52.07409 -1.12617 16381 ft 342 kts 152°
2026-04-25 13:24 52.05372 -1.10715 16052 ft 339 kts 152°
2026-04-25 13:24 52.03340 -1.08817 15718 ft 337 kts 151°
2026-04-25 13:25 52.01520 -1.06524 15372 ft 337 kts 131°
2026-04-25 13:25 52.00368 -1.03228 15059 ft 335 kts 108°
2026-04-25 13:25 52.00027 -0.99549 14726 ft 334 kts 87°
2026-04-25 13:25 52.00267 -0.95593 14399 ft 331 kts 82°
2026-04-25 13:26 52.00571 -0.91880 14053 ft 332 kts 82°
2026-04-25 13:26 52.00874 -0.88162 13684 ft 333 kts 82°
2026-04-25 13:26 52.01157 -0.84474 13328 ft 332 kts 83°
2026-04-25 13:26 52.01432 -0.80693 12970 ft 329 kts 83°
2026-04-25 13:27 52.01695 -0.77016 12643 ft 326 kts 83°
2026-04-25 13:27 52.02248 -0.73518 12294 ft 323 kts 63°
2026-04-25 13:27 52.03522 -0.70569 12002 ft 317 kts 46°
2026-04-25 13:27 52.05035 -0.68031 11671 ft 310 kts 44°
2026-04-25 13:28 52.06563 -0.65556 11355 ft 300 kts 44°
2026-04-25 13:28 52.07050 -0.64768 11264 ft 300 kts 44°
2026-04-25 13:28 52.09519 -0.60752 10754 ft 297 kts 44°
2026-04-25 13:28 52.10976 -0.58356 10469 ft 296 kts 44°
2026-04-25 13:29 52.12417 -0.55972 10168 ft 295 kts 44°
2026-04-25 13:29 52.13825 -0.53633 10135 ft 281 kts 44°
2026-04-25 13:29 52.15183 -0.51375 9613 ft 280 kts 45°
2026-04-25 13:30 52.17878 -0.46881 8860 ft 271 kts 44°
2026-04-25 13:30 52.18744 -0.45434 8608 ft 269 kts 44°
2026-04-25 13:30 52.20042 -0.43263 8284 ft 264 kts 44°
2026-04-25 13:31 52.21856 -0.39004 8229 ft 251 kts 78°
2026-04-25 13:31 52.21769 -0.36148 8218 ft 251 kts 106°
2026-04-25 13:31 52.21193 -0.33440 8208 ft 254 kts 110°
2026-04-25 13:31 52.20561 -0.30721 8208 ft 255 kts 110°
2026-04-25 13:32 52.19924 -0.28014 8208 ft 255 kts 112°
2026-04-25 13:32 52.18915 -0.25665 8204 ft 255 kts 142°
2026-04-25 13:32 52.17337 -0.24444 8205 ft 252 kts 172°
2026-04-25 13:32 52.15596 -0.24234 8203 ft 251 kts 179°
2026-04-25 13:33 52.13842 -0.24188 8209 ft 252 kts 180°
2026-04-25 13:33 52.12078 -0.24164 8208 ft 252 kts 181°
2026-04-25 13:33 52.10325 -0.24147 8052 ft 255 kts 181°
2026-04-25 13:33 52.09117 -0.24140 7889 ft 257 kts 181°
2026-04-25 13:34 52.06776 -0.24750 7527 ft 254 kts 210°
2026-04-25 13:34 52.05496 -0.26625 7332 ft 248 kts 239°
2026-04-25 13:34 52.04687 -0.29046 7204 ft 242 kts 245°
2026-04-25 13:34 52.03957 -0.31498 6991 ft 241 kts 245°
2026-04-25 13:35 52.03239 -0.33950 6764 ft 240 kts 246°
2026-04-25 13:35 52.02537 -0.36358 6527 ft 239 kts 245°
2026-04-25 13:35 52.01829 -0.38804 6293 ft 238 kts 245°
2026-04-25 13:35 52.01129 -0.41229 6102 ft 236 kts 246°
2026-04-25 13:36 52.00446 -0.43595 5872 ft 237 kts 246°
2026-04-25 13:36 51.99732 -0.46081 5665 ft 236 kts 246°
2026-04-25 13:36 51.99038 -0.48498 5432 ft 236 kts 246°
2026-04-25 13:36 51.98357 -0.50873 5223 ft 235 kts 246°
2026-04-25 13:37 51.97662 -0.53293 5030 ft 233 kts 246°
2026-04-25 13:37 51.96984 -0.55650 4798 ft 233 kts 246°
2026-04-25 13:37 51.96296 -0.58042 4543 ft 233 kts 246°
2026-04-25 13:37 51.95582 -0.60368 4390 ft 224 kts 234°
2026-04-25 13:38 51.94388 -0.61865 4238 ft 215 kts 199°
2026-04-25 13:38 51.92883 -0.61982 4109 ft 218 kts 166°
2026-04-25 13:38 51.91460 -0.61242 3857 ft 217 kts 161°
2026-04-25 13:38 51.90027 -0.60434 3633 ft 210 kts 161°
2026-04-25 13:39 51.88641 -0.59643 3370 ft 207 kts 160°
2026-04-25 13:39 51.87296 -0.58880 3093 ft 203 kts 160°
2026-04-25 13:39 51.85989 -0.58135 2863 ft 198 kts 161°
2026-04-25 13:39 51.84764 -0.57323 2730 ft 190 kts 144°
2026-04-25 13:40 51.84163 -0.56252 2640 ft 186 kts 115°
2026-04-25 13:40 51.84291 -0.53645 2466 ft 183 kts 53°
2026-04-25 13:40 51.85101 -0.52013 2231 ft 190 kts 63°
2026-04-25 13:40 51.85251 -0.50016 2058 ft 173 kts 92°
2026-04-25 13:41 51.85421 -0.48100 1732 ft 171 kts 72°
2026-04-25 13:41 51.85786 -0.46311 1645 ft 155 kts 71°
2026-04-25 13:41 51.86087 -0.44798 1627 ft 135 kts 75°
2026-04-25 13:41 51.86340 -0.43326 1376 ft 138 kts 74°
2026-04-25 13:42 51.86610 -0.41850 1116 ft 134 kts 74°
2026-04-25 13:42 51.86858 -0.40415 838 ft 130 kts 76°
2026-04-25 13:42 51.87095 -0.39020 644 ft 126 kts 75°
2026-04-25 13:42 51.87316 -0.37680 537 ft 109 kts 75°
2026-04-25 13:43 51.87466 -0.36823 539 ft 57 kts 74°
2026-04-25 13:43 51.87533 -0.36433 536 ft 53 kts 74°
2026-04-25 13:43 51.87627 -0.35907 521 ft 25 kts 66°
2026-04-25 13:43 51.87685 -0.35914 525 ft 9 kts 340°
2026-04-25 13:44 51.87742 -0.35949 528 ft 9 kts 329°
2026-04-25 13:44 51.87779 -0.36024 530 ft 8 kts 291°
2026-04-25 13:44 51.87777 -0.36119 531 ft 9 kts 258°
2026-04-25 13:44 51.87767 -0.36184 531 ft 10 kts 255°
2026-04-25 13:45 51.87749 -0.36290 531 ft 9 kts 253°
2026-04-25 13:45 51.87730 -0.36392 531 ft 9 kts 253°
2026-04-25 13:45 51.87713 -0.36492 531 ft 10 kts 254°
2026-04-25 13:45 51.87693 -0.36607 532 ft 11 kts 254°
2026-04-25 13:46 51.87672 -0.36729 533 ft 11 kts 254°
2026-04-25 13:46 51.87650 -0.36856 533 ft 12 kts 254°
2026-04-25 13:46 51.87627 -0.36992 533 ft 13 kts 254°
2026-04-25 13:46 51.87602 -0.37136 533 ft 14 kts 254°
2026-04-25 13:47 51.87580 -0.37288 533 ft 14 kts 269°
2026-04-25 13:47 51.87614 -0.37434 535 ft 13 kts 316°
2026-04-25 13:47 51.87688 -0.37532 533 ft 15 kts 310°
2026-04-25 13:47 51.87736 -0.37681 533 ft 15 kts 294°
2026-04-25 13:48 51.87779 -0.37832 533 ft 15 kts 296°
2026-04-25 13:48 51.87832 -0.37969 533 ft 14 kts 318°
2026-04-25 13:48 51.87925 -0.38015 533 ft 14 kts
2026-04-25 13:48 51.88010 -0.37947 533 ft 14 kts 37°
2026-04-25 13:49 51.88083 -0.37857 533 ft 11 kts 38°
2026-04-25 13:49 51.88135 -0.37780 533 ft 8 kts 48°
2026-04-25 13:49 51.88150 -0.37732 533 ft 3 kts 93°
2026-04-25 13:49 51.88134 -0.37717 533 ft 3 kts 164°
2026-04-25 13:50 51.88115 -0.37710 533 ft 3 kts 168°
2026-04-25 13:50 51.88110 -0.37708 533 ft 0 kts 168°